Change the Weather History Date:

Tuesday, March 4, 2014

  Actual Average Record
Temperature  
Mean Temperature 29 °F -  
Max Temperature 44 °F 50 °F 69 °F (2011)
Min Temperature 14 °F 31 °F 3 °F (2002)
Degree Days  
Heating Degree Days 36    
Moisture  
Dew Point 12 °F    
Average Humidity 54    
Maximum Humidity 74    
Minimum Humidity 37    
Precipitation  
Precipitation 0.52 in - - ()
Sea Level Pressure  
Sea Level Pressure 30.15 in    
Wind  
Wind Speed 4 mph (South)    
Max Wind Speed 10 mph    
Max Gust Speed -    
Averages and records for this station are not official NWS values.
T = Trace of Precipitation, MM = Missing Value Source: NWS Daily Summary

Daily Weather History Graph

Daily Weather History Graph

Search for Another Location

Airport or City:

Trip Planner

Search our weather history database for the weather conditions in past years. The results will help you decide how hot, cold, wet, or windy it might be!

Date:

Astronomy

Mar. 04, 2014 Rise Set
Actual Time 6:44 AM CST 6:15 PM CST
Civil Twilight 6:18 AM CST 6:41 PM CST
Nautical Twilight 5:48 AM CST 7:11 PM CST
Astronomical Twilight 5:18 AM CST 7:40 PM CST
Moon 8:38 AM CST (3/4) 10:15 PM CST (3/4)
Length of Visible Light 12h 22m
Length of Day
11h 31m
Waxing Crescent, 15% of the Moon is Illuminated
Mar 4
Waxing Crescent
Mar 8
First Quarter
Mar 16
Full
Mar 23
Last Quarter
Mar 30
New

Hourly Weather History & Observations

Time (CST) Temp. Windchill Dew Point Humidity Pressure Visibility Wind Dir Wind Speed Gust Speed Precip Events Conditions
12:15 AM 17.6 °F - 5.0 °F 58% 30.26 in - Calm Calm - N/A   Clear
12:35 AM 15.8 °F 7.2 °F 3.2 °F 58% 30.24 in - SE 5.8 mph - N/A   Clear
12:55 AM 17.6 °F 10.7 °F 6.8 °F 63% 30.24 in - SE 4.6 mph - N/A   Clear
1:15 AM 15.8 °F 10.2 °F 6.8 °F 68% 30.24 in - SSE 3.5 mph - N/A   Clear
1:35 AM 15.8 °F - 6.8 °F 68% 30.23 in - Calm Calm - N/A   Clear
1:55 AM 15.8 °F - 6.8 °F 68% 30.23 in - Calm Calm - N/A   Clear
2:15 AM 14.0 °F 8.2 °F 5.0 °F 67% 30.22 in - WSW 3.5 mph - N/A   Clear
2:35 AM 14.0 °F 6.5 °F 6.8 °F 73% 30.22 in - SW 4.6 mph - N/A   Clear
2:55 AM 15.8 °F 10.2 °F 8.6 °F 73% 30.22 in - SW 3.5 mph - N/A   Clear
3:15 AM 15.8 °F 10.2 °F 8.6 °F 73% 30.21 in - WSW 3.5 mph - N/A   Clear
3:35 AM 15.8 °F 10.2 °F 6.8 °F 68% 30.22 in - West 3.5 mph - N/A   Mostly Cloudy
3:55 AM 15.8 °F 10.2 °F 6.8 °F 68% 30.22 in - WSW 3.5 mph - N/A   Overcast
4:15 AM 17.6 °F 12.3 °F 8.6 °F 68% 30.22 in - West 3.5 mph - N/A   Overcast
4:35 AM 17.6 °F - 8.6 °F 68% 30.21 in - Calm Calm - N/A   Overcast
4:55 AM 17.6 °F - 8.6 °F 68% 30.21 in - Calm Calm - N/A   Overcast
5:15 AM 17.6 °F - 8.6 °F 68% 30.20 in - Calm Calm - N/A   Overcast
5:35 AM 15.8 °F - 6.8 °F 68% 30.20 in - Calm Calm - N/A   Scattered Clouds
5:55 AM 15.8 °F - 6.8 °F 68% 30.21 in - Calm Calm - N/A   Clear
6:15 AM 15.8 °F - 6.8 °F 68% 30.22 in - Calm Calm - N/A   Clear
6:35 AM 15.8 °F - 5.0 °F 62% 30.23 in - Calm Calm - N/A   Clear
6:55 AM 14.0 °F - 6.8 °F 73% 30.25 in - Calm Calm - N/A   Clear
7:15 AM 15.8 °F 10.2 °F 6.8 °F 68% 30.23 in - East 3.5 mph - N/A   Clear
7:35 AM 15.8 °F 10.2 °F 6.8 °F 68% 30.22 in - ESE 3.5 mph - N/A   Clear
7:55 AM 17.6 °F 10.7 °F 8.6 °F 68% 30.21 in - ESE 4.6 mph - N/A   Clear
8:15 AM 17.6 °F 9.3 °F 10.4 °F 73% 30.21 in - SE 5.8 mph - N/A   Clear
8:35 AM 19.4 °F 10.4 °F 12.2 °F 74% 30.20 in - ESE 6.9 mph - N/A   Clear
8:55 AM 21.2 °F 14.9 °F 12.2 °F 68% 30.21 in - SE 4.6 mph - N/A   Clear
9:15 AM 23.0 °F 15.8 °F 12.2 °F 63% 30.21 in - SSE 5.8 mph - N/A   Clear
9:35 AM 24.8 °F 17.9 °F 12.2 °F 59% 30.21 in - SSE 5.8 mph - N/A   Clear
9:55 AM 28.4 °F 21.2 °F 10.4 °F 47% 30.20 in - South 6.9 mph - N/A   Clear
10:15 AM 28.4 °F 22.2 °F 12.2 °F 51% 30.20 in - South 5.8 mph - N/A   Clear
10:35 AM 28.4 °F 19.7 °F 12.2 °F 51% 30.20 in - South 9.2 mph - N/A   Clear
10:55 AM 30.2 °F 21.3 °F 12.2 °F 47% 30.19 in - SSW 10.4 mph - N/A   Clear
11:15 AM 32.0 °F 24.8 °F 12.2 °F 44% 30.19 in - South 8.1 mph - N/A   Clear
11:35 AM 33.8 °F 27.0 °F 14.0 °F 44% 30.18 in - South 8.1 mph - N/A   Clear
11:55 AM 33.8 °F 25.8 °F 14.0 °F 44% 30.17 in - SSW 10.4 mph - 0.01 in   Clear
12:15 PM 33.8 °F 27.7 °F 15.8 °F 48% 30.16 in - South 6.9 mph - 0.01 in   Clear
12:35 PM 35.6 °F 30.7 °F 15.8 °F 44% 30.14 in - South 5.8 mph - 0.03 in   Clear
12:55 PM 35.6 °F 29.9 °F 15.8 °F 44% 30.13 in - South 6.9 mph - 0.04 in   Clear
1:15 PM 37.4 °F 30.8 °F 15.8 °F 41% 30.12 in - South 9.2 mph - 0.01 in   Clear
1:35 PM 37.4 °F 31.4 °F 17.6 °F 45% 30.10 in - South 8.1 mph - 0.03 in   Clear
1:55 PM 39.2 °F 35.0 °F 17.6 °F 42% 30.10 in - South 5.8 mph - 0.07 in   Clear
2:15 PM 39.2 °F 35.0 °F 17.6 °F 42% 30.09 in - SSW 5.8 mph - 0.06 in   Clear
2:35 PM 42.8 °F 40.1 °F 19.4 °F 39% 30.09 in - WSW 4.6 mph - 0.13 in   Clear
2:55 PM 42.8 °F 40.1 °F 19.4 °F 39% 30.08 in - WSW 4.6 mph - 0.20 in   Clear
3:15 PM 42.8 °F 40.1 °F 19.4 °F 39% 30.08 in - WSW 4.6 mph - 0.06 in   Clear
3:35 PM 42.8 °F 41.1 °F 19.4 °F 39% 30.08 in - SW 3.5 mph - 0.10 in   Clear
3:55 PM 44.6 °F 40.7 °F 19.4 °F 37% 30.07 in - South 6.9 mph - 0.12 in   Clear
4:15 PM 44.6 °F 42.2 °F 21.2 °F 39% 30.07 in - WSW 4.6 mph - 0.02 in   Clear
4:35 PM 44.6 °F - 19.4 °F 37% 30.07 in - Calm Calm - 0.04 in   Clear
4:55 PM 44.6 °F 42.2 °F 19.4 °F 37% 30.07 in - SSW 4.6 mph - 0.06 in   Clear
5:15 PM 42.8 °F 38.6 °F 19.4 °F 39% 30.07 in - SSW 6.9 mph - 0.01 in   Clear
5:35 PM 42.8 °F 40.1 °F 19.4 °F 39% 30.07 in - South 4.6 mph - 0.02 in   Clear
5:55 PM 41.0 °F 37.1 °F 17.6 °F 39% 30.06 in - South 5.8 mph - 0.02 in   Clear
6:15 PM 39.2 °F 35.9 °F 17.6 °F 42% 30.06 in - South 4.6 mph - N/A   Clear
6:35 PM 39.2 °F 35.9 °F 17.6 °F 42% 30.06 in - South 4.6 mph - N/A   Clear
6:55 PM 37.4 °F 33.8 °F 17.6 °F 45% 30.06 in - SSW 4.6 mph - N/A   Clear
7:15 PM 33.8 °F 25.8 °F 17.6 °F 52% 30.06 in - SSW 10.4 mph - N/A   Clear
7:35 PM 35.6 °F 28.6 °F 17.6 °F 48% 30.05 in - South 9.2 mph - N/A   Clear
7:55 PM 33.8 °F 25.8 °F 17.6 °F 52% 30.05 in - SSW 10.4 mph - N/A   Clear
8:15 PM 32.0 °F 24.8 °F 17.6 °F 55% 30.07 in - SW 8.1 mph - N/A   Clear
8:35 PM 32.0 °F 26.4 °F 17.6 °F 55% 30.07 in - SSW 5.8 mph - N/A   Clear
8:55 PM 30.2 °F 23.4 °F 15.8 °F 55% 30.08 in - SSW 6.9 mph - N/A   Clear
9:15 PM 32.0 °F 26.4 °F 14.0 °F 48% 30.08 in - South 5.8 mph - N/A   Clear
9:35 PM 30.2 °F 25.4 °F 12.2 °F 47% 30.08 in - SSE 4.6 mph - N/A   Clear
9:55 PM 28.4 °F 24.6 °F 12.2 °F 51% 30.07 in - SSE 3.5 mph - N/A   Clear
10:15 PM 28.4 °F 23.3 °F 12.2 °F 51% 30.07 in - SSE 4.6 mph - N/A   Clear
10:35 PM 28.4 °F 22.2 °F 10.4 °F 47% 30.06 in - SE 5.8 mph - N/A   Clear
10:55 PM 28.4 °F 22.2 °F 10.4 °F 47% 30.06 in - SSE 5.8 mph - N/A   Clear
11:15 PM 28.4 °F 23.3 °F 10.4 °F 47% 30.06 in - SSE 4.6 mph - N/A   Clear
11:35 PM 28.4 °F 23.3 °F 8.6 °F 43% 30.06 in - SSE 4.6 mph - N/A   Clear
11:55 PM 28.4 °F 23.3 °F 8.6 °F 43% 30.06 in - SE 4.6 mph - N/A   Clear